Location: *
(51.5000°N, 0.1100°W)
Time: 20:36:06
(UTC+00:00)

Cosmos 2322 Rocket - Pass Details

Date: 25 May 2024
Orbit: 832 x 850 km, 71.0° (Epoch: 16 June)

Event Time Altitude Azimuth Distance (km) Brightness Sun altitude
Rises 00:19:09 0° 331° (NNW) 3,400 6.3 -17.3°
Reaches altitude 10° 00:21:49 10° 340° (NNW) 2,465 5.6 -17.3°
Maximum altitude 00:27:00 36° 46° (NE) 1,311 3.6 -17.2°
Drops below altitude 10° 00:32:12 10° 113° (ESE) 2,465 4.5 -17.1°
Sets 00:34:51 0° 122° (ESE) 3,400 5.1 -17.0°
